Date String (YYYY-MM-DD hh:mm:ss) UTC,Instrument flags,Ambient pressure (hPa),Sample flow (lpm),Bypass flow (lpm),Sample temperature (°C),Ambient temperature (°C),ASC tube jacket temperature (°C),LED temperature (°C),Box temperature (°C),Sample RH (%),Span deviation,Mass concentration (μg/m³),Mass concentration (μg/m³),Mass concentration (μg/m³)
DateTimeUTC,F1_M11,P_M11,Q1_M11,Q2_M11,T1_M11,T2_M11,T3_M11,T4_M11,T5_M11,U1_M11,ZSPAN_M11,X0_M11,X2_M11,X1_M11
2022-09-21 20:00:00,,0833.8,5.00,0.00,30.6,29.1,00.0,39.3,32.4,25.5,0000.7,0022.96,0009.78,0008.21
2022-09-21 20:01:00,,0833.8,5.02,0.00,30.6,29.0,00.0,39.3,32.3,25.5,0000.6,0022.31,0009.81,0008.21
2022-09-21 20:02:00,,0833.7,4.98,0.00,30.5,28.9,00.0,39.3,32.3,25.5,0000.6,0021.93,0009.86,0008.23
2022-09-21 20:03:00,,0833.7,5.01,0.00,30.5,28.9,00.0,39.3,32.3,25.5,0000.6,0021.19,0009.83,0008.22
2022-09-21 20:04:00,,0833.7,5.00,0.00,30.5,28.9,00.0,39.3,32.3,25.6,0000.7,0020.57,0009.75,0008.20
2022-09-21 20:05:00,,0833.7,5.00,0.00,30.5,29.0,00.0,39.3,32.3,25.7,0000.6,0019.95,0009.71,0008.21
2022-09-21 20:06:00,,0833.7,4.99,0.00,30.5,29.0,00.0,39.3,32.3,25.8,0000.6,0019.26,0009.62,0008.21
2022-09-21 20:07:00,,0833.7,5.01,0.00,30.5,28.9,00.0,39.3,32.3,26.5,0000.6,0019.15,0009.62,0008.23
2022-09-21 20:08:00,,0833.6,4.99,0.00,30.5,28.9,00.0,39.3,32.3,26.2,0000.3,0019.38,0009.62,0008.24
2022-09-21 20:09:00,,0833.6,5.01,0.00,30.5,28.9,00.0,39.3,32.3,25.9,0000.1,0019.47,0009.60,0008.23
2022-09-21 20:10:00,,0833.6,4.99,0.00,30.5,28.9,00.0,39.3,32.3,25.7,0000.3,0018.72,0009.63,0008.23
2022-09-21 20:11:00,,0833.6,5.01,0.00,30.5,28.9,00.0,39.3,32.3,25.8,0000.5,0018.50,0009.55,0008.21
2022-09-21 20:12:00,,0833.6,4.99,0.00,30.5,28.9,00.0,39.3,32.3,25.9,0000.6,0017.69,0009.50,0008.19
2022-09-21 20:13:00,,0833.6,5.01,0.00,30.5,28.9,00.0,39.3,32.3,25.9,0000.4,0018.40,0009.50,0008.18
2022-09-21 20:14:00,,0833.6,4.99,0.00,30.5,29.0,00.0,39.3,32.3,25.9,0000.1,0018.52,0009.50,0008.19
2022-09-21 20:15:00,,0833.6,5.00,0.00,30.5,29.0,00.0,39.3,32.3,25.9,-000.1,0018.83,0009.52,0008.19
2022-09-21 20:16:00,,0833.6,4.99,0.00,30.5,28.9,00.0,39.3,32.3,25.8,-000.3,0018.49,0009.56,0008.20
2022-09-21 20:17:00,,0833.6,5.01,0.00,30.5,28.9,00.0,39.3,32.3,25.8,-000.0,0018.66,0009.63,0008.22
2022-09-21 20:18:00,,0833.6,5.00,0.00,30.5,29.0,00.0,39.3,32.3,26.0,0000.3,0018.69,0009.67,0008.24
2022-09-21 20:19:00,,0833.5,5.00,0.00,30.5,29.0,00.0,39.3,32.3,26.1,0000.5,0017.91,0009.65,0008.24
2022-09-21 20:20:00,,0833.5,5.01,0.00,30.5,29.0,00.0,39.3,32.3,26.1,0000.4,0017.38,0009.67,0008.27
2022-09-21 20:21:00,,0833.5,5.00,0.00,30.5,29.0,00.0,39.3,32.3,26.2,-000.0,0017.42,0009.71,0008.32
2022-09-21 20:22:00,,0833.5,5.01,0.00,30.5,29.0,00.0,39.3,32.3,26.3,-000.1,0017.19,0009.76,0008.34
2022-09-21 20:23:00,,0833.6,5.00,0.00,30.5,29.0,00.0,39.3,32.3,26.3,-000.5,0016.91,0009.82,0008.38
2022-09-21 20:24:00,,0833.6,5.00,0.00,30.5,29.1,00.0,39.3,32.3,26.4,-000.5,0016.51,0009.78,0008.39
2022-09-21 20:25:00,,0833.6,5.01,0.00,30.5,29.1,00.0,39.3,32.3,26.3,-000.2,0016.94,0009.82,0008.42
2022-09-21 20:26:00,,0833.6,5.00,0.00,30.5,29.0,00.0,39.3,32.3,26.3,0000.1,0017.10,0009.77,0008.41
2022-09-21 20:27:00,,0833.6,5.00,0.00,30.5,28.9,00.0,39.3,32.3,26.4,0000.4,0017.21,0009.70,0008.40
2022-09-21 20:28:00,,0833.6,5.00,0.00,30.5,29.0,00.0,39.3,32.3,26.5,0000.1,0017.11,0009.65,0008.39
2022-09-21 20:29:00,,0833.6,5.00,0.00,30.5,29.0,00.0,39.3,32.3,26.5,-000.3,0017.39,0009.64,0008.39
2022-09-21 20:30:00,,0833.5,5.01,0.00,30.5,28.9,00.0,39.3,32.3,26.5,-000.4,0018.05,0009.64,0008.39
2022-09-21 20:31:00,,0833.5,4.99,0.00,30.5,28.9,00.0,39.3,32.3,26.5,-000.4,0018.54,0009.64,0008.40
2022-09-21 20:32:00,,0833.5,5.01,0.00,30.5,28.9,00.0,39.3,32.3,26.5,-000.3,0019.15,0009.58,0008.37
2022-09-21 20:33:00,,0833.6,5.00,0.00,30.5,28.9,00.0,39.3,32.3,26.5,-000.3,0019.07,0009.56,0008.35
2022-09-21 20:34:00,,0833.6,5.01,0.00,30.5,28.9,00.0,39.3,32.3,26.3,-000.2,0019.05,0009.54,0008.32
2022-09-21 20:35:00,,0833.6,4.99,0.00,30.5,28.9,00.0,39.3,32.3,26.3,-000.2,0018.70,0009.53,0008.31
2022-09-21 20:36:00,,0833.6,5.01,0.00,30.5,28.8,00.0,39.3,32.3,26.5,-000.4,0018.19,0009.48,0008.27
2022-09-21 20:37:00,,0833.5,4.99,0.00,30.5,28.9,00.0,39.3,32.3,26.6,-000.5,0017.73,0009.53,0008.28
2022-09-21 20:38:00,,0833.6,5.00,0.00,30.5,28.9,00.0,39.3,32.3,26.5,-000.2,0017.61,0009.62,0008.29
2022-09-21 20:39:00,,0833.7,5.00,0.00,30.5,28.8,00.0,39.3,32.3,26.5,-000.3,0017.72,0009.65,0008.27
2022-09-21 20:40:00,,0833.6,4.99,0.00,30.5,28.8,00.0,39.3,32.2,26.4,-000.1,0017.59,0009.65,0008.28
2022-09-21 20:41:00,,0833.6,5.02,0.00,30.5,28.8,00.0,39.3,32.2,26.4,-000.1,0017.71,0009.64,0008.26
2022-09-21 20:42:00,,0833.6,4.98,0.00,30.5,28.8,00.0,39.3,32.3,26.4,-000.1,0017.34,0009.66,0008.24
2022-09-21 20:43:00,,0833.6,5.01,0.00,30.5,28.9,00.0,39.3,32.3,26.5,0000.1,0016.67,0009.69,0008.24
2022-09-21 20:44:00,,0833.6,5.01,0.00,30.5,28.9,00.0,39.3,32.3,26.5,-000.3,0017.36,0009.70,0008.24
2022-09-21 20:45:00,,0833.6,4.99,0.00,30.5,28.8,00.0,39.3,32.2,26.6,-000.2,0017.84,0009.71,0008.25
2022-09-21 20:46:00,,0833.6,5.01,0.00,30.5,28.8,00.0,39.3,32.2,26.6,-000.4,0018.12,0009.70,0008.25
2022-09-21 20:47:00,,0833.6,5.00,0.00,30.5,28.8,00.0,39.3,32.2,26.6,-000.3,0018.01,0009.67,0008.22
2022-09-21 20:48:00,,0833.6,5.01,0.00,30.5,28.8,00.0,39.3,32.2,27.0,-000.2,0017.68,0009.61,0008.18
2022-09-21 20:49:00,,0833.6,5.00,0.00,30.5,28.8,00.0,39.3,32.2,27.7,-000.5,0017.92,0009.57,0008.14
2022-09-21 20:50:00,,0833.6,5.01,0.00,30.4,28.8,00.0,39.3,32.2,27.2,-000.5,0017.80,0009.56,0008.12
2022-09-21 20:51:00,,0833.6,4.99,0.00,30.4,28.8,00.0,39.2,32.2,26.9,-000.6,0017.65,0009.56,0008.09
2022-09-21 20:52:00,,0833.6,5.01,0.00,30.5,28.9,00.0,39.2,32.2,26.9,-000.8,0016.91,0009.54,0008.08
2022-09-21 20:53:00,,0833.6,4.99,0.00,30.5,28.9,00.0,39.2,32.3,27.0,-000.7,0017.00,0009.54,0008.07
2022-09-21 20:54:00,,0833.6,5.00,0.00,30.5,28.9,00.0,39.2,32.3,27.0,-000.9,0017.28,0009.50,0008.06
2022-09-21 20:55:00,,0833.6,4.99,0.00,30.5,28.9,00.0,39.2,32.3,27.0,-000.8,0016.78,0009.49,0008.06
2022-09-21 20:56:00,,0833.6,5.01,0.00,30.5,28.9,00.0,39.3,32.3,27.0,-000.7,0016.19,0009.46,0008.07
2022-09-21 20:57:00,,0833.6,4.99,0.00,30.5,28.9,00.0,39.3,32.3,27.0,-000.5,0015.94,0009.51,0008.09
2022-09-21 20:58:00,,0833.6,5.01,0.00,30.5,28.9,00.0,39.2,32.3,27.0,-000.3,0016.08,0009.54,0008.15
2022-09-21 20:59:00,,0833.6,4.99,0.00,30.5,28.9,00.0,39.2,32.3,27.1,-000.4,0016.24,0009.57,0008.19
